Date String (YYYY-MM-DD hh:mm:ss) UTC,Instrument flags,absolute air pressure of the measurement (hPa),sample flow rate (lpm),inlet stack bypass flow (lpm),air temperature of the measurement (°C),ambient temperature measured by the external sensor (°C),aerosol sample conditioner tube jacket temperature (°C),OPC LED temperature (°C),internal box temperature (°C),relative humidity of the measurement (%),span deviation,mass concentration of particles derived from Lorenz-Mie calculation of OPC scattering (μg/m³),mass concentration of particles derived from Lorenz-Mie calculation of OPC scattering (μg/m³),mass concentration of particles derived from Lorenz-Mie calculation of OPC scattering (μg/m³)
DateTimeUTC,F1_M11,P_M11,Q1_M11,Q2_M11,T1_M11,T2_M11,T3_M11,T4_M11,T5_M11,U1_M11,ZSPAN_M11,X0_M11,X2_M11,X1_M11
2023-09-18 04:00:00,SystemResetWarning,0831.8,4.99,000.00,027.9,026.0,000.0,036.3,029.5,18.1,0000.0,0005.72,0003.47,0003.16
2023-09-18 04:01:00,SystemResetWarning,0831.9,5.00,000.00,027.9,026.2,000.0,036.3,029.5,18.0,0000.0,0005.38,0003.46,0003.16
2023-09-18 04:02:00,SystemResetWarning,0832.0,5.00,000.00,028.0,026.4,000.0,036.3,029.6,18.0,0000.0,0005.36,0003.46,0003.16
2023-09-18 04:03:00,SystemResetWarning,0831.8,5.00,000.00,028.0,026.5,000.0,036.3,029.6,17.7,0000.0,0005.44,0003.47,0003.17
2023-09-18 04:04:00,SystemResetWarning,0831.7,5.00,000.00,028.0,026.7,000.0,036.3,029.7,18.0,0000.0,0005.33,0003.44,0003.17
2023-09-18 04:05:00,SystemResetWarning,0831.7,5.00,000.00,028.0,026.8,000.0,036.4,029.7,17.9,0000.0,0005.70,0003.46,0003.19
2023-09-18 04:06:00,SystemResetWarning,0831.8,5.00,000.00,028.1,026.8,000.0,036.4,029.8,17.7,0000.0,0006.54,0003.47,0003.21
2023-09-18 04:07:00,SystemResetWarning,0831.8,5.00,000.00,028.1,026.9,000.0,036.4,029.8,17.5,0000.0,0006.50,0003.48,0003.21
2023-09-18 04:08:00,SystemResetWarning,0831.7,5.00,000.00,028.2,027.0,000.0,036.4,029.8,17.8,0000.0,0006.97,0003.49,0003.22
2023-09-18 04:09:00,SystemResetWarning,0831.7,4.99,000.00,028.2,027.0,000.0,036.4,029.9,17.5,0000.0,0007.58,0003.49,0003.23
2023-09-18 04:10:00,SystemResetWarning,0831.7,5.00,000.00,028.2,027.1,000.0,036.5,029.9,17.8,0000.0,0007.64,0003.51,0003.23
2023-09-18 04:11:00,SystemResetWarning,0831.7,5.00,000.00,028.2,027.2,000.0,036.5,029.9,17.8,0000.0,0007.64,0003.51,0003.23
2023-09-18 04:12:00,SystemResetWarning,0831.7,5.00,000.00,028.3,027.2,000.0,036.5,030.0,17.9,0000.0,0007.53,0003.50,0003.24
2023-09-18 04:13:00,SystemResetWarning,0831.7,5.00,000.00,028.3,026.4,000.0,036.5,029.7,17.4,0000.0,0007.52,0003.49,0003.23
2023-09-18 04:14:00,SystemResetWarning,0831.6,5.01,000.00,028.1,024.9,000.0,036.4,029.3,17.3,0000.0,0007.47,0003.47,0003.23
2023-09-18 04:15:00,SystemResetWarning,0831.6,5.01,000.00,028.1,024.5,000.0,036.4,029.3,17.4,0000.0,0007.70,0003.49,0003.23
2023-09-18 04:16:00,SystemResetWarning,0831.6,5.00,000.00,028.0,024.7,000.0,036.4,029.3,17.5,0000.0,0007.43,0003.47,0003.22
2023-09-18 04:17:00,SystemResetWarning,0831.6,4.99,000.00,027.9,025.0,000.0,036.4,029.3,17.6,0000.0,0006.70,0003.46,0003.21
2023-09-18 04:18:00,SystemResetWarning,0831.6,4.99,000.00,027.9,025.3,000.0,036.4,029.3,17.7,0000.0,0006.79,0003.48,0003.21
2023-09-18 04:19:00,SystemResetWarning,0831.6,5.00,000.00,027.9,025.6,000.0,036.4,029.4,17.5,0000.0,0006.46,0003.50,0003.21
2023-09-18 04:20:00,SystemResetWarning,0831.6,5.00,000.00,027.9,025.9,000.0,036.3,029.4,16.9,0000.0,0005.59,0003.52,0003.21
2023-09-18 04:21:00,SystemResetWarning,0831.6,5.01,000.00,027.9,026.1,000.0,036.3,029.5,16.5,0000.0,0005.64,0003.54,0003.21
2023-09-18 04:22:00,SystemResetWarning,0831.6,5.01,000.00,028.0,026.3,000.0,036.4,029.5,16.3,0000.0,0005.72,0003.54,0003.21
2023-09-18 04:23:00,SystemResetWarning,0831.6,5.01,000.00,028.0,026.5,000.0,036.4,029.6,16.2,0000.0,0005.70,0003.54,0003.20
2023-09-18 04:24:00,SystemResetWarning,0831.6,5.00,000.00,028.0,026.6,000.0,036.4,029.7,16.5,0000.0,0005.62,0003.52,0003.20
2023-09-18 04:25:00,SystemResetWarning,0831.6,4.99,000.00,028.0,026.7,000.0,036.4,029.7,16.3,0000.0,0005.96,0003.52,0003.20
2023-09-18 04:26:00,SystemResetWarning,0831.6,5.00,000.00,028.1,026.8,000.0,036.4,029.7,16.1,0000.0,0005.57,0003.50,0003.20
2023-09-18 04:27:00,SystemResetWarning,0831.6,5.00,000.00,028.1,026.9,000.0,036.4,029.8,16.1,0000.0,0005.56,0003.51,0003.20
2023-09-18 04:28:00,SystemResetWarning,0831.6,5.00,000.00,028.1,027.0,000.0,036.4,029.8,16.2,0000.0,0005.50,0003.49,0003.20
2023-09-18 04:29:00,SystemResetWarning,0831.6,5.00,000.00,028.2,027.0,000.0,036.4,029.9,16.2,0000.0,0005.44,0003.48,0003.19
2023-09-18 04:30:00,SystemResetWarning,0831.6,5.00,000.00,028.2,027.1,000.0,036.5,029.9,16.3,0000.0,0005.19,0003.46,0003.19
2023-09-18 04:31:00,SystemResetWarning,0831.6,5.00,000.00,028.2,027.2,000.0,036.5,030.0,16.2,0000.0,0005.15,0003.46,0003.18
2023-09-18 04:32:00,SystemResetWarning,0831.6,5.01,000.00,028.3,027.2,000.0,036.5,029.9,16.2,0000.0,0005.11,0003.44,0003.17
2023-09-18 04:33:00,SystemResetWarning,0831.6,4.99,000.00,028.3,027.3,000.0,036.5,030.0,16.2,0000.0,0005.14,0003.42,0003.16
2023-09-18 04:34:00,SystemResetWarning,0831.6,4.98,000.00,028.3,027.0,000.0,036.5,029.9,16.2,0000.0,0005.25,0003.42,0003.15
2023-09-18 04:35:00,SystemResetWarning,0831.6,5.01,000.00,028.2,025.3,000.0,036.5,029.5,16.3,0000.0,0005.31,0003.41,0003.13
2023-09-18 04:36:00,SystemResetWarning,0831.6,5.00,000.00,028.1,024.6,000.0,036.4,029.4,16.3,0000.0,0004.94,0003.40,0003.11
2023-09-18 04:37:00,SystemResetWarning,0831.5,5.00,000.00,028.1,024.7,000.0,036.4,029.3,16.4,0000.0,0004.94,0003.39,0003.11
2023-09-18 04:38:00,SystemResetWarning,0831.5,5.01,000.00,028.0,025.0,000.0,036.4,029.3,16.5,0000.0,0005.47,0003.41,0003.10
2023-09-18 04:39:00,SystemResetWarning,0831.6,5.00,000.00,028.0,025.3,000.0,036.4,029.3,16.5,0000.0,0005.78,0003.43,0003.09
2023-09-18 04:40:00,SystemResetWarning,0831.6,5.00,000.00,028.0,025.6,000.0,036.4,029.4,16.6,0000.0,0005.99,0003.44,0003.07
2023-09-18 04:41:00,SystemResetWarning,0831.6,5.00,000.00,028.0,025.9,000.0,036.4,029.5,16.6,0000.0,0006.00,0003.42,0003.05
2023-09-18 04:42:00,SystemResetWarning,0831.6,4.99,000.00,028.0,026.1,000.0,036.4,029.5,16.7,0000.0,0006.05,0003.39,0003.04
2023-09-18 04:43:00,SystemResetWarning,0831.7,4.99,000.00,028.0,026.3,000.0,036.4,029.6,16.8,0000.0,0006.05,0003.37,0003.02
2023-09-18 04:44:00,SystemResetWarning,0831.7,5.00,000.00,028.0,026.5,000.0,036.4,029.6,18.0,0000.0,0006.55,0003.38,0003.02
2023-09-18 04:45:00,SystemResetWarning,0831.6,5.00,000.00,028.1,026.7,000.0,036.4,029.7,18.1,0000.0,0006.48,0003.36,0003.02
2023-09-18 04:46:00,SystemResetWarning,0831.7,5.01,000.00,028.1,026.8,000.0,036.4,029.7,16.8,0000.0,0006.47,0003.36,0003.04
2023-09-18 04:47:00,SystemResetWarning,0831.7,5.00,000.00,028.1,026.9,000.0,036.4,029.8,16.4,0000.0,0006.54,0003.36,0003.04
2023-09-18 04:48:00,SystemResetWarning,0831.7,5.00,000.00,028.2,027.0,000.0,036.5,029.9,16.6,0000.0,0006.47,0003.33,0003.03
2023-09-18 04:49:00,SystemResetWarning,0831.7,5.00,000.00,028.2,027.1,000.0,036.5,029.9,17.3,0000.0,0007.10,0003.33,0003.01
2023-09-18 04:50:00,SystemResetWarning,0831.7,5.00,000.00,028.2,027.1,000.0,036.5,029.9,17.1,0000.0,0006.92,0003.30,0002.99
2023-09-18 04:51:00,SystemResetWarning,0831.7,4.99,000.00,028.3,027.2,000.0,036.5,030.0,16.5,0000.0,0006.79,0003.28,0002.98
2023-09-18 04:52:00,SystemResetWarning,0831.7,5.00,000.00,028.3,027.3,000.0,036.5,030.0,16.3,0000.0,0006.79,0003.29,0002.96
2023-09-18 04:53:00,SystemResetWarning,0831.7,4.99,000.00,028.3,027.3,000.0,036.6,030.1,16.4,0000.0,0006.65,0003.28,0002.94
2023-09-18 04:54:00,SystemResetWarning,0831.7,5.00,000.00,028.4,026.7,000.0,036.6,029.9,16.4,0000.0,0006.50,0003.26,0002.93
2023-09-18 04:55:00,SystemResetWarning,0831.7,5.00,000.00,028.3,025.0,000.0,036.5,029.6,16.4,0000.0,0005.92,0003.22,0002.90
2023-09-18 04:56:00,SystemResetWarning,0831.6,5.00,000.00,028.2,024.6,000.0,036.4,029.5,16.4,0000.0,0005.81,0003.20,0002.87
2023-09-18 04:57:00,SystemResetWarning,0831.6,5.01,000.00,028.1,024.8,000.0,036.4,029.4,16.8,0000.0,0005.81,0003.18,0002.81
2023-09-18 04:58:00,SystemResetWarning,0831.6,5.00,000.00,028.0,025.1,000.0,036.4,029.3,17.3,0000.0,0005.71,0003.16,0002.77
2023-09-18 04:59:00,SystemResetWarning,0831.7,5.00,000.00,028.0,025.4,000.0,036.4,029.4,17.4,0000.0,0005.81,0003.17,0002.72
